Time,TemperatureF,DewpointF,PressureIn,WindDirection,WindDirectionDegrees,WindSpeedMPH,WindSpeedGustMPH,Humidity,HourlyPrecipIn,Conditions,Clouds,dailyrainin,SoftwareType,DateUTC
2014-09-19 00:03:00,53.2,44.1,30.17,WNW,300,1.0,4.0,71,0.00,,,0.00,meteohub,2014-09-19 04:03:00,
2014-09-19 00:08:00,53.1,44.2,30.17,WNW,300,0.0,3.0,72,0.00,,,0.00,meteohub,2014-09-19 04:08:00,
2014-09-19 00:13:00,52.9,44.1,30.17,WNW,300,0.0,3.0,72,0.00,,,0.00,meteohub,2014-09-19 04:13:00,
2014-09-19 00:18:00,52.7,44.2,30.17,WNW,300,0.0,2.0,73,0.00,,,0.00,meteohub,2014-09-19 04:18:00,
2014-09-19 00:23:00,52.3,44.2,30.17,WNW,300,0.0,2.0,74,0.00,,,0.00,meteohub,2014-09-19 04:23:00,
2014-09-19 00:28:00,52.2,45.1,30.17,WNW,300,0.0,2.0,77,0.00,,,0.00,meteohub,2014-09-19 04:28:00,
2014-09-19 00:33:00,52.0,45.0,30.18,WNW,300,0.0,2.0,77,0.00,,,0.00,meteohub,2014-09-19 04:33:00,
2014-09-19 00:38:00,51.6,45.0,30.18,WNW,300,0.0,1.0,78,0.00,,,0.00,meteohub,2014-09-19 04:38:00,
2014-09-19 00:43:00,51.3,44.2,30.18,WNW,300,0.0,0.0,77,0.00,,,0.00,meteohub,2014-09-19 04:43:00,
2014-09-19 00:48:00,50.9,44.2,30.18,WNW,300,0.0,0.0,78,0.00,,,0.00,meteohub,2014-09-19 04:48:00,
2014-09-19 00:53:00,50.5,44.2,30.19,WNW,300,0.0,0.0,79,0.00,,,0.00,meteohub,2014-09-19 04:53:00,
2014-09-19 00:58:00,50.4,43.7,30.19,WNW,300,0.0,0.0,78,0.00,,,0.00,meteohub,2014-09-19 04:58:00,
2014-09-19 01:03:00,50.2,43.9,30.19,WNW,300,0.0,1.0,79,0.00,,,0.00,meteohub,2014-09-19 05:03:00,
2014-09-19 01:08:00,50.2,43.9,30.19,WNW,300,0.0,1.0,79,0.00,,,0.00,meteohub,2014-09-19 05:08:00,
2014-09-19 01:13:00,49.8,43.5,30.19,WNW,300,0.0,1.0,79,0.00,,,0.00,meteohub,2014-09-19 05:13:00,
2014-09-19 01:18:00,49.6,43.3,30.19,WNW,300,0.0,0.0,79,0.00,,,0.00,meteohub,2014-09-19 05:18:00,
2014-09-19 01:23:00,49.6,43.3,30.19,WNW,300,0.0,0.0,79,0.00,,,0.00,meteohub,2014-09-19 05:23:00,
2014-09-19 01:28:00,49.5,43.5,30.20,WNW,300,0.0,0.0,80,0.00,,,0.00,meteohub,2014-09-19 05:28:00,
2014-09-19 01:33:00,49.5,43.9,30.20,WNW,300,0.0,0.0,81,0.00,,,0.00,meteohub,2014-09-19 05:33:00,
2014-09-19 01:38:00,49.3,43.7,30.20,WNW,300,0.0,0.0,81,0.00,,,0.00,meteohub,2014-09-19 05:38:00,
2014-09-19 01:43:00,49.1,43.2,30.20,WNW,300,0.0,1.0,80,0.00,,,0.00,meteohub,2014-09-19 05:43:00,
2014-09-19 01:48:00,48.9,43.0,30.20,WNW,300,0.0,1.0,80,0.00,,,0.00,meteohub,2014-09-19 05:48:00,
2014-09-19 01:53:00,48.7,43.2,30.21,WNW,300,0.0,1.0,81,0.00,,,0.00,meteohub,2014-09-19 05:53:00,
2014-09-19 01:58:00,48.6,43.0,30.21,WNW,300,0.0,1.0,81,0.00,,,0.00,meteohub,2014-09-19 05:58:00,
2014-09-19 02:03:00,48.4,42.8,30.22,WNW,300,0.0,1.0,81,0.00,,,0.00,meteohub,2014-09-19 06:03:00,
2014-09-19 02:08:00,48.2,42.6,30.22,WNW,300,0.0,1.0,81,0.00,,,0.00,meteohub,2014-09-19 06:08:00,
2014-09-19 02:13:00,47.8,42.6,30.22,WNW,300,0.0,0.0,82,0.00,,,0.00,meteohub,2014-09-19 06:13:00,
2014-09-19 02:18:00,47.7,42.4,30.22,WNW,300,0.0,0.0,82,0.00,,,0.00,meteohub,2014-09-19 06:18:00,
2014-09-19 02:23:00,47.5,42.3,30.22,WNW,300,0.0,0.0,82,0.00,,,0.00,meteohub,2014-09-19 06:23:00,
2014-09-19 02:28:00,47.1,41.9,30.22,WNW,300,0.0,0.0,82,0.00,,,0.00,meteohub,2014-09-19 06:28:00,
2014-09-19 02:33:00,46.9,41.7,30.22,WNW,300,0.0,0.0,82,0.00,,,0.00,meteohub,2014-09-19 06:33:00,
2014-09-19 02:38:00,46.8,41.5,30.22,WNW,300,0.0,0.0,82,0.00,,,0.00,meteohub,2014-09-19 06:38:00,
2014-09-19 02:43:00,46.6,41.4,30.22,WNW,300,0.0,0.0,82,0.00,,,0.00,meteohub,2014-09-19 06:43:00,
2014-09-19 02:48:00,46.4,41.5,30.22,WNW,300,0.0,0.0,83,0.00,,,0.00,meteohub,2014-09-19 06:48:00,
2014-09-19 02:53:00,46.2,41.4,30.23,WNW,300,0.0,0.0,83,0.00,,,0.00,meteohub,2014-09-19 06:53:00,
2014-09-19 02:58:00,46.0,41.2,30.23,WNW,300,0.0,0.0,83,0.00,,,0.00,meteohub,2014-09-19 06:58:00,
2014-09-19 03:03:00,46.0,41.2,30.23,WNW,300,0.0,0.0,83,0.00,,,0.00,meteohub,2014-09-19 07:03:00,
2014-09-19 03:08:00,45.9,41.0,30.23,WNW,300,0.0,0.0,83,0.00,,,0.00,meteohub,2014-09-19 07:08:00,
2014-09-19 03:13:00,45.7,40.8,30.23,WNW,300,0.0,0.0,83,0.00,,,0.00,meteohub,2014-09-19 07:13:00,
2014-09-19 03:18:00,45.7,40.8,30.23,WNW,300,0.0,0.0,83,0.00,,,0.00,meteohub,2014-09-19 07:18:00,
2014-09-19 03:23:00,45.5,40.6,30.24,WNW,300,0.0,0.0,83,0.00,,,0.00,meteohub,2014-09-19 07:23:00,
2014-09-19 03:28:00,45.3,40.5,30.24,WNW,300,0.0,0.0,83,0.00,,,0.00,meteohub,2014-09-19 07:28:00,
2014-09-19 03:33:00,45.3,40.5,30.24,WNW,300,0.0,0.0,83,0.00,,,0.00,meteohub,2014-09-19 07:33:00,
2014-09-19 03:38:00,45.1,40.3,30.24,WNW,300,0.0,0.0,83,0.00,,,0.00,meteohub,2014-09-19 07:38:00,
2014-09-19 03:43:00,45.0,40.1,30.24,WNW,300,0.0,0.0,83,0.00,,,0.00,meteohub,2014-09-19 07:43:00,
2014-09-19 03:48:00,44.8,39.9,30.24,WNW,300,0.0,0.0,83,0.00,,,0.00,meteohub,2014-09-19 07:48:00,
2014-09-19 03:53:00,44.6,39.7,30.25,WNW,300,0.0,0.0,83,0.00,,,0.00,meteohub,2014-09-19 07:53:00,
2014-09-19 03:58:00,44.4,39.6,30.25,WNW,300,0.0,0.0,83,0.00,,,0.00,meteohub,2014-09-19 07:58:00,
2014-09-19 04:03:00,44.2,39.4,30.25,WNW,300,0.0,0.0,83,0.00,,,0.00,meteohub,2014-09-19 08:03:00,
2014-09-19 04:08:00,44.1,39.2,30.25,WNW,300,0.0,0.0,83,0.00,,,0.00,meteohub,2014-09-19 08:08:00,
2014-09-19 04:13:00,43.9,39.0,30.25,WNW,300,0.0,0.0,83,0.00,,,0.00,meteohub,2014-09-19 08:13:00,
2014-09-19 04:18:00,43.7,38.8,30.25,WNW,300,0.0,0.0,83,0.00,,,0.00,meteohub,2014-09-19 08:18:00,
2014-09-19 04:23:00,43.5,38.7,30.26,WNW,300,0.0,0.0,83,0.00,,,0.00,meteohub,2014-09-19 08:23:00,
2014-09-19 04:28:00,43.5,38.7,30.26,WNW,300,0.0,0.0,83,0.00,,,0.00,meteohub,2014-09-19 08:28:00,
2014-09-19 04:33:00,43.3,38.5,30.27,WNW,300,0.0,0.0,83,0.00,,,0.00,meteohub,2014-09-19 08:33:00,
2014-09-19 04:38:00,43.2,38.3,30.27,WNW,300,0.0,0.0,83,0.00,,,0.00,meteohub,2014-09-19 08:38:00,
2014-09-19 04:43:00,43.2,38.3,30.27,WNW,300,0.0,0.0,83,0.00,,,0.00,meteohub,2014-09-19 08:43:00,
2014-09-19 04:48:00,43.0,38.1,30.27,WNW,300,0.0,0.0,83,0.00,,,0.00,meteohub,2014-09-19 08:48:00,
2014-09-19 04:53:00,43.0,38.1,30.27,WNW,300,0.0,0.0,83,0.00,,,0.00,meteohub,2014-09-19 08:53:00,
2014-09-19 04:58:00,42.8,37.9,30.27,WNW,300,0.0,0.0,83,0.00,,,0.00,meteohub,2014-09-19 08:58:00,
2014-09-19 05:03:00,42.8,38.3,30.28,WNW,300,0.0,0.0,84,0.00,,,0.00,meteohub,2014-09-19 09:03:00,
2014-09-19 05:08:00,42.6,37.8,30.28,WNW,300,0.0,0.0,83,0.00,,,0.00,meteohub,2014-09-19 09:08:00,
2014-09-19 05:13:00,42.4,37.6,30.28,WNW,300,0.0,0.0,83,0.00,,,0.00,meteohub,2014-09-19 09:13:00,
2014-09-19 05:18:00,42.4,37.6,30.29,WNW,300,0.0,0.0,83,0.00,,,0.00,meteohub,2014-09-19 09:18:00,
2014-09-19 05:23:00,42.3,37.8,30.29,WNW,300,0.0,0.0,84,0.00,,,0.00,meteohub,2014-09-19 09:23:00,
2014-09-19 05:28:00,42.3,37.8,30.29,WNW,300,0.0,0.0,84,0.00,,,0.00,meteohub,2014-09-19 09:28:00,
2014-09-19 05:33:00,42.1,37.6,30.29,WNW,300,0.0,0.0,84,0.00,,,0.00,meteohub,2014-09-19 09:33:00,
2014-09-19 05:38:00,41.9,37.4,30.30,WNW,300,0.0,0.0,84,0.00,,,0.00,meteohub,2014-09-19 09:38:00,
2014-09-19 05:43:00,41.7,37.2,30.30,WNW,300,0.0,0.0,84,0.00,,,0.00,meteohub,2014-09-19 09:43:00,
2014-09-19 05:48:00,41.5,37.0,30.30,WNW,300,0.0,0.0,84,0.00,,,0.00,meteohub,2014-09-19 09:48:00,
2014-09-19 05:53:00,41.5,37.0,30.30,WNW,300,0.0,0.0,84,0.00,,,0.00,meteohub,2014-09-19 09:53:00,
2014-09-19 05:58:00,41.4,36.9,30.30,WNW,300,0.0,0.0,84,0.00,,,0.00,meteohub,2014-09-19 09:58:00,
2014-09-19 06:03:00,41.4,36.9,30.30,WNW,300,0.0,0.0,84,0.00,,,0.00,meteohub,2014-09-19 10:03:00,
2014-09-19 06:09:00,41.4,36.9,30.31,WNW,300,0.0,0.0,84,0.00,,,0.00,meteohub,2014-09-19 10:09:00,
2014-09-19 06:14:00,41.4,36.9,30.31,WNW,300,0.0,0.0,84,0.00,,,0.00,meteohub,2014-09-19 10:14:00,
2014-09-19 06:19:00,41.2,36.7,30.31,WNW,300,0.0,0.0,84,0.00,,,0.00,meteohub,2014-09-19 10:19:00,
2014-09-19 06:24:00,41.2,36.7,30.31,WNW,300,0.0,0.0,84,0.00,,,0.00,meteohub,2014-09-19 10:24:00,
2014-09-19 06:29:00,41.4,36.9,30.32,WNW,300,0.0,1.0,84,0.00,,,0.00,meteohub,2014-09-19 10:29:00,
2014-09-19 06:34:00,41.4,36.9,30.32,WNW,300,0.0,2.0,84,0.00,,,0.00,meteohub,2014-09-19 10:34:00,
2014-09-19 06:39:00,41.4,36.9,30.32,WNW,300,0.0,2.0,84,0.00,,,0.00,meteohub,2014-09-19 10:39:00,
2014-09-19 06:44:00,41.4,36.9,30.32,WNW,300,0.0,1.0,84,0.00,,,0.00,meteohub,2014-09-19 10:44:00,
2014-09-19 06:49:00,41.2,36.7,30.33,WNW,300,0.0,1.0,84,0.00,,,0.00,meteohub,2014-09-19 10:49:00,
2014-09-19 06:54:00,41.2,36.7,30.33,WNW,300,0.0,1.0,84,0.00,,,0.00,meteohub,2014-09-19 10:54:00,
2014-09-19 06:59:00,41.2,36.7,30.33,WNW,300,0.0,0.0,84,0.00,,,0.00,meteohub,2014-09-19 10:59:00,
2014-09-19 07:04:00,41.4,36.9,30.33,WNW,300,0.0,0.0,84,0.00,,,0.00,meteohub,2014-09-19 11:04:00,
2014-09-19 07:09:00,41.4,36.9,30.34,WNW,300,0.0,1.0,84,0.00,,,0.00,meteohub,2014-09-19 11:09:00,
2014-09-19 07:14:00,41.5,37.0,30.34,WNW,300,0.0,1.0,84,0.00,,,0.00,meteohub,2014-09-19 11:14:00,
2014-09-19 07:19:00,41.5,37.0,30.34,WNW,300,0.0,1.0,84,0.00,,,0.00,meteohub,2014-09-19 11:19:00,
2014-09-19 07:24:00,41.7,37.2,30.34,WNW,300,0.0,1.0,84,0.00,,,0.00,meteohub,2014-09-19 11:24:00,
2014-09-19 07:29:00,42.1,37.6,30.35,WNW,300,0.0,1.0,84,0.00,,,0.00,meteohub,2014-09-19 11:29:00,
2014-09-19 07:34:00,42.3,37.8,30.35,WNW,300,0.0,1.0,84,0.00,,,0.00,meteohub,2014-09-19 11:34:00,
2014-09-19 07:39:00,42.4,37.9,30.35,WNW,300,0.0,1.0,84,0.00,,,0.00,meteohub,2014-09-19 11:39:00,
2014-09-19 07:44:00,42.8,38.3,30.35,WNW,300,0.0,1.0,84,0.00,,,0.00,meteohub,2014-09-19 11:44:00,
2014-09-19 07:49:00,43.2,38.7,30.36,WNW,300,0.0,1.0,84,0.00,,,0.00,meteohub,2014-09-19 11:49:00,
2014-09-19 07:54:00,43.3,38.5,30.36,NW,321,0.0,1.0,83,0.00,,,0.00,meteohub,2014-09-19 11:54:00,
2014-09-19 07:59:00,43.5,38.7,30.36,NW,321,0.0,1.0,83,0.00,,,0.00,meteohub,2014-09-19 11:59:00,
2014-09-19 08:04:00,44.1,39.2,30.37,East,92,1.0,2.0,83,0.00,,,0.00,meteohub,2014-09-19 12:04:00,
2014-09-19 08:09:00,44.2,39.0,30.37,East,91,1.0,2.0,82,0.00,,,0.00,meteohub,2014-09-19 12:09:00,
2014-09-19 08:14:00,44.8,39.4,30.37,East,94,0.0,2.0,81,0.00,,,0.00,meteohub,2014-09-19 12:14:00,
2014-09-19 08:19:00,45.1,39.4,30.37,NNW,348,0.0,2.0,80,0.00,,,0.00,meteohub,2014-09-19 12:19:00,
2014-09-19 08:24:00,45.5,39.0,30.37,East,81,1.0,2.0,78,0.00,,,0.00,meteohub,2014-09-19 12:24:00,
2014-09-19 08:29:00,45.9,39.7,30.38,East,80,0.0,4.0,79,0.00,,,0.00,meteohub,2014-09-19 12:29:00,
2014-09-19 08:34:00,46.2,39.4,30.38,East,88,2.0,4.0,77,0.00,,,0.00,meteohub,2014-09-19 12:34:00,
2014-09-19 08:39:00,46.6,39.4,30.38,East,82,3.0,3.0,76,0.00,,,0.00,meteohub,2014-09-19 12:39:00,
2014-09-19 08:44:00,46.9,39.7,30.38,East,79,0.0,8.0,76,0.00,,,0.00,meteohub,2014-09-19 12:44:00,
2014-09-19 08:49:00,47.1,39.2,30.38,West,265,0.0,8.0,74,0.00,,,0.00,meteohub,2014-09-19 12:49:00,
2014-09-19 08:54:00,47.5,38.8,30.39,ENE,61,0.0,5.0,72,0.00,,,0.00,meteohub,2014-09-19 12:54:00,
2014-09-19 08:59:00,48.0,39.7,30.39,East,92,0.0,2.0,73,0.00,,,0.00,meteohub,2014-09-19 12:59:00,
2014-09-19 09:04:00,48.6,38.8,30.39,West,259,0.0,5.0,69,0.00,,,0.00,meteohub,2014-09-19 13:04:00,
2014-09-19 09:09:00,48.7,38.7,30.39,East,80,1.0,5.0,68,0.00,,,0.00,meteohub,2014-09-19 13:09:00,
2014-09-19 09:14:00,49.1,39.0,30.39,East,88,2.0,5.0,68,0.00,,,0.00,meteohub,2014-09-19 13:14:00,
2014-09-19 09:19:00,49.5,38.7,30.39,East,92,3.0,4.0,66,0.00,,,0.00,meteohub,2014-09-19 13:19:00,
2014-09-19 09:24:00,49.6,38.7,30.39,WNW,296,1.0,5.0,66,0.00,,,0.00,meteohub,2014-09-19 13:24:00,
2014-09-19 09:29:00,50.5,39.2,30.40,East,94,1.0,5.0,65,0.00,,,0.00,meteohub,2014-09-19 13:29:00,
2014-09-19 09:34:00,51.1,38.8,30.40,ENE,77,0.0,8.0,63,0.00,,,0.00,meteohub,2014-09-19 13:34:00,
2014-09-19 09:39:00,51.4,36.7,30.40,East,88,2.0,8.0,57,0.00,,,0.00,meteohub,2014-09-19 13:39:00,
2014-09-19 09:44:00,51.4,37.6,30.40,East,84,0.0,8.0,59,0.00,,,0.00,meteohub,2014-09-19 13:44:00,
2014-09-19 09:49:00,51.6,37.4,30.40,ESE,103,2.0,10.0,58,0.00,,,0.00,meteohub,2014-09-19 13:49:00,
2014-09-19 09:54:00,51.8,36.7,30.40,East,92,2.0,10.0,56,0.00,,,0.00,meteohub,2014-09-19 13:54:00,
2014-09-19 09:59:00,52.0,36.9,30.40,East,82,1.0,10.0,56,0.00,,,0.00,meteohub,2014-09-19 13:59:00,
2014-09-19 10:04:00,52.3,38.8,30.40,South,178,3.0,8.0,60,0.00,,,0.00,meteohub,2014-09-19 14:04:00,
2014-09-19 10:09:00,52.7,37.9,30.40,NNE,32,0.0,7.0,57,0.00,,,0.00,meteohub,2014-09-19 14:09:00,
2014-09-19 10:14:00,53.1,38.3,30.40,East,84,6.0,6.0,57,0.00,,,0.00,meteohub,2014-09-19 14:14:00,
2014-09-19 10:19:00,53.4,38.1,30.40,ESE,103,3.0,6.0,56,0.00,,,0.00,meteohub,2014-09-19 14:19:00,
2014-09-19 10:24:00,53.4,37.6,30.40,East,90,5.0,6.0,55,0.00,,,0.00,meteohub,2014-09-19 14:24:00,
2014-09-19 10:29:00,53.6,40.1,30.40,East,94,6.0,7.0,60,0.00,,,0.00,meteohub,2014-09-19 14:29:00,
2014-09-19 10:34:00,53.8,38.8,30.40,ENE,74,0.0,7.0,57,0.00,,,0.00,meteohub,2014-09-19 14:34:00,
2014-09-19 10:39:00,54.0,38.7,30.40,East,80,0.0,7.0,56,0.00,,,0.00,meteohub,2014-09-19 14:39:00,
2014-09-19 10:44:00,54.1,38.8,30.40,East,81,0.0,8.0,56,0.00,,,0.00,meteohub,2014-09-19 14:44:00,
2014-09-19 10:49:00,54.1,36.0,30.40,East,82,1.0,8.0,50,0.00,,,0.00,meteohub,2014-09-19 14:49:00,
2014-09-19 10:54:00,54.0,38.7,30.40,East,84,0.0,8.0,56,0.00,,,0.00,meteohub,2014-09-19 14:54:00,
2014-09-19 10:59:00,54.1,39.2,30.40,East,92,0.0,7.0,57,0.00,,,0.00,meteohub,2014-09-19 14:59:00,
2014-09-19 11:04:00,54.7,37.4,30.40,WNW,298,0.0,8.0,52,0.00,,,0.00,meteohub,2014-09-19 15:04:00,
2014-09-19 11:09:00,54.7,37.4,30.40,East,94,5.0,8.0,52,0.00,,,0.00,meteohub,2014-09-19 15:09:00,
2014-09-19 11:14:00,54.9,37.6,30.40,East,85,5.0,8.0,52,0.00,,,0.00,meteohub,2014-09-19 15:14:00,
2014-09-19 11:19:00,54.9,37.0,30.40,East,88,2.0,8.0,51,0.00,,,0.00,meteohub,2014-09-19 15:19:00,
2014-09-19 11:24:00,55.0,38.3,30.40,East,89,1.0,8.0,53,0.00,,,0.00,meteohub,2014-09-19 15:24:00,
2014-09-19 11:29:00,55.2,38.3,30.40,ENE,67,5.0,9.0,53,0.00,,,0.00,meteohub,2014-09-19 15:29:00,
2014-09-19 11:34:00,55.2,39.7,30.40,East,90,1.0,9.0,56,0.00,,,0.00,meteohub,2014-09-19 15:34:00,
2014-09-19 11:39:00,55.8,39.9,30.40,East,90,1.0,9.0,55,0.00,,,0.00,meteohub,2014-09-19 15:39:00,
2014-09-19 11:44:00,55.9,38.1,30.40,NE,45,0.0,9.0,51,0.00,,,0.00,meteohub,2014-09-19 15:44:00,
2014-09-19 11:49:00,55.8,36.3,30.40,NNW,330,0.0,5.0,48,0.00,,,0.00,meteohub,2014-09-19 15:49:00,
2014-09-19 11:54:00,55.8,39.9,30.40,East,85,1.0,3.0,55,0.00,,,0.00,meteohub,2014-09-19 15:54:00,
2014-09-19 11:59:00,55.9,38.5,30.40,East,86,2.0,8.0,52,0.00,,,0.00,meteohub,2014-09-19 15:59:00,
2014-09-19 12:04:00,56.5,38.7,30.40,East,82,5.0,8.0,51,0.00,,,0.00,meteohub,2014-09-19 16:04:00,
2014-09-19 12:09:00,56.5,37.0,30.40,East,96,5.0,8.0,48,0.00,,,0.00,meteohub,2014-09-19 16:09:00,
2014-09-19 12:14:00,56.5,40.1,30.40,ESE,111,2.0,7.0,54,0.00,,,0.00,meteohub,2014-09-19 16:14:00,
2014-09-19 12:19:00,56.5,39.6,30.40,East,86,1.0,6.0,53,0.00,,,0.00,meteohub,2014-09-19 16:19:00,
2014-09-19 12:24:00,56.5,38.7,30.40,East,84,3.0,8.0,51,0.00,,,0.00,meteohub,2014-09-19 16:24:00,
2014-09-19 12:29:00,56.8,38.8,30.40,NNE,18,0.0,8.0,51,0.00,,,0.00,meteohub,2014-09-19 16:29:00,
2014-09-19 12:34:00,57.0,39.0,30.40,ENE,77,0.0,8.0,51,0.00,,,0.00,meteohub,2014-09-19 16:34:00,
2014-09-19 12:39:00,57.0,39.6,30.40,East,96,0.0,7.0,52,0.00,,,0.00,meteohub,2014-09-19 16:39:00,
2014-09-19 12:44:00,57.7,42.6,30.40,East,83,1.0,7.0,57,0.00,,,0.00,meteohub,2014-09-19 16:44:00,
2014-09-19 12:49:00,58.5,40.8,30.40,East,85,1.0,6.0,52,0.00,,,0.00,meteohub,2014-09-19 16:49:00,
2014-09-19 12:54:00,58.6,40.1,30.40,East,92,0.0,6.0,50,0.00,,,0.00,meteohub,2014-09-19 16:54:00,
2014-09-19 12:59:00,58.6,41.0,30.40,East,91,1.0,6.0,52,0.00,,,0.00,meteohub,2014-09-19 16:59:00,
2014-09-19 13:04:00,58.6,40.1,30.39,ENE,68,2.0,6.0,50,0.00,,,0.00,meteohub,2014-09-19 17:04:00,
2014-09-19 13:09:00,58.6,39.6,30.39,NE,49,0.0,7.0,49,0.00,,,0.00,meteohub,2014-09-19 17:09:00,
2014-09-19 13:14:00,58.8,39.7,30.40,East,93,2.0,7.0,49,0.00,,,0.00,meteohub,2014-09-19 17:14:00,
2014-09-19 13:19:00,59.0,43.3,30.39,East,86,1.0,7.0,56,0.00,,,0.00,meteohub,2014-09-19 17:19:00,
2014-09-19 13:24:00,59.4,41.7,30.39,East,82,1.0,7.0,52,0.00,,,0.00,meteohub,2014-09-19 17:24:00,
2014-09-19 13:29:00,59.5,39.9,30.39,East,99,1.0,7.0,48,0.00,,,0.00,meteohub,2014-09-19 17:29:00,
2014-09-19 13:34:00,59.7,40.5,30.40,ESE,116,1.0,5.0,49,0.00,,,0.00,meteohub,2014-09-19 17:34:00,
2014-09-19 13:39:00,59.9,41.2,30.40,East,96,1.0,8.0,50,0.00,,,0.00,meteohub,2014-09-19 17:39:00,
2014-09-19 13:44:00,60.1,39.7,30.40,East,83,0.0,8.0,47,0.00,,,0.00,meteohub,2014-09-19 17:44:00,
2014-09-19 13:49:00,59.9,40.6,30.40,ENE,70,0.0,8.0,49,0.00,,,0.00,meteohub,2014-09-19 17:49:00,
2014-09-19 13:54:00,60.1,41.4,30.40,ENE,74,0.0,3.0,50,0.00,,,0.00,meteohub,2014-09-19 17:54:00,
2014-09-19 13:59:00,60.3,39.9,30.40,ENE,74,0.0,8.0,47,0.00,,,0.00,meteohub,2014-09-19 17:59:00,
2014-09-19 14:04:00,60.4,40.1,30.40,East,88,0.0,8.0,47,0.00,,,0.00,meteohub,2014-09-19 18:04:00,
2014-09-19 14:09:00,60.6,42.4,30.40,East,89,1.0,6.0,51,0.00,,,0.00,meteohub,2014-09-19 18:09:00,
2014-09-19 14:14:00,60.6,39.7,30.40,East,84,0.0,5.0,46,0.00,,,0.00,meteohub,2014-09-19 18:14:00,
2014-09-19 14:19:00,60.6,41.4,30.40,East,88,3.0,6.0,49,0.00,,,0.00,meteohub,2014-09-19 18:19:00,
2014-09-19 14:24:00,60.3,41.5,30.40,East,88,1.0,8.0,50,0.00,,,0.00,meteohub,2014-09-19 18:24:00,
2014-09-19 14:29:00,59.9,41.2,30.40,SE,132,0.0,8.0,50,0.00,,,0.00,meteohub,2014-09-19 18:29:00,
2014-09-19 14:34:00,59.7,40.5,30.40,East,79,2.0,8.0,49,0.00,,,0.00,meteohub,2014-09-19 18:34:00,
2014-09-19 14:39:00,59.7,42.1,30.40,East,90,2.0,6.0,52,0.00,,,0.00,meteohub,2014-09-19 18:39:00,
2014-09-19 14:44:00,60.1,42.4,30.40,ENE,77,1.0,6.0,52,0.00,,,0.00,meteohub,2014-09-19 18:44:00,
2014-09-19 14:49:00,59.7,41.0,30.40,ESE,108,2.0,6.0,50,0.00,,,0.00,meteohub,2014-09-19 18:49:00,
2014-09-19 14:54:00,59.4,41.2,30.40,East,88,5.0,10.0,51,0.00,,,0.00,meteohub,2014-09-19 18:54:00,
2014-09-19 14:59:00,59.4,42.8,30.40,East,90,3.0,10.0,54,0.00,,,0.00,meteohub,2014-09-19 18:59:00,
2014-09-19 15:04:00,59.4,42.3,30.40,East,80,3.0,10.0,53,0.00,,,0.00,meteohub,2014-09-19 19:04:00,
2014-09-19 15:09:00,59.4,42.3,30.39,East,80,1.0,6.0,53,0.00,,,0.00,meteohub,2014-09-19 19:09:00,
2014-09-19 15:12:00,59.4,40.6,30.39,East,80,2.0,7.0,50,0.00,,,0.00,meteohub,2014-09-19 19:12:00,
2014-09-19 15:17:00,59.2,41.5,30.40,East,82,1.0,7.0,52,0.00,,,0.00,meteohub,2014-09-19 19:17:00,
2014-09-19 15:22:00,59.0,42.8,30.40,ENE,73,1.0,6.0,55,0.00,,,0.00,meteohub,2014-09-19 19:22:00,
2014-09-19 15:27:00,59.2,43.0,30.40,East,92,2.0,6.0,55,0.00,,,0.00,meteohub,2014-09-19 19:27:00,
2014-09-19 15:32:00,59.2,42.1,30.40,East,84,1.0,6.0,53,0.00,,,0.00,meteohub,2014-09-19 19:32:00,
2014-09-19 15:37:00,59.0,43.3,30.40,East,90,5.0,6.0,56,0.00,,,0.00,meteohub,2014-09-19 19:37:00,
2014-09-19 15:42:00,59.2,43.0,30.40,East,92,5.0,6.0,55,0.00,,,0.00,meteohub,2014-09-19 19:42:00,
2014-09-19 15:47:00,58.8,42.3,30.40,SSE,155,0.0,6.0,54,0.00,,,0.00,meteohub,2014-09-19 19:47:00,
2014-09-19 15:51:00,58.6,40.6,30.40,ENE,69,0.0,7.0,51,0.00,,,0.00,meteohub,2014-09-19 19:51:00,
2014-09-19 15:56:00,58.6,42.4,30.39,East,87,3.0,8.0,55,0.00,,,0.00,meteohub,2014-09-19 19:56:00,
2014-09-19 16:01:00,58.5,41.9,30.39,East,86,6.0,8.0,54,0.00,,,0.00,meteohub,2014-09-19 20:01:00,
2014-09-19 16:06:00,58.3,42.3,30.39,ENE,61,2.0,7.0,55,0.00,,,0.00,meteohub,2014-09-19 20:06:00,
2014-09-19 16:11:00,57.9,41.9,30.38,ENE,75,2.0,7.0,55,0.00,,,0.00,meteohub,2014-09-19 20:11:00,
2014-09-19 16:16:00,57.7,41.7,30.38,East,84,2.0,8.0,55,0.00,,,0.00,meteohub,2014-09-19 20:16:00,
2014-09-19 16:21:00,57.4,41.9,30.38,East,90,1.0,8.0,56,0.00,,,0.00,meteohub,2014-09-19 20:21:00,
2014-09-19 16:26:00,57.4,42.3,30.38,East,91,3.0,8.0,57,0.00,,,0.00,meteohub,2014-09-19 20:26:00,
2014-09-19 16:31:00,57.0,41.9,30.39,East,86,2.0,8.0,57,0.00,,,0.00,meteohub,2014-09-19 20:31:00,
2014-09-19 16:36:00,56.8,41.7,30.39,East,88,3.0,8.0,57,0.00,,,0.00,meteohub,2014-09-19 20:36:00,
2014-09-19 16:41:00,56.7,40.3,30.39,East,84,0.0,8.0,54,0.00,,,0.00,meteohub,2014-09-19 20:41:00,
2014-09-19 16:47:00,56.5,41.9,30.39,ENE,76,0.0,8.0,58,0.00,,,0.00,meteohub,2014-09-19 20:47:00,
2014-09-19 16:52:00,56.1,42.4,30.40,East,89,3.0,9.0,60,0.00,,,0.00,meteohub,2014-09-19 20:52:00,
2014-09-19 16:57:00,55.8,40.3,30.40,East,82,2.0,9.0,56,0.00,,,0.00,meteohub,2014-09-19 20:57:00,
2014-09-19 17:00:00,55.6,40.6,30.40,East,82,0.0,5.0,57,0.00,,,0.00,meteohub,2014-09-19 21:00:00,
2014-09-19 17:05:00,55.2,40.6,30.40,East,88,0.0,5.0,58,0.00,,,0.00,meteohub,2014-09-19 21:05:00,
2014-09-19 17:10:00,55.0,41.4,30.40,East,92,0.0,5.0,60,0.00,,,0.00,meteohub,2014-09-19 21:10:00,
2014-09-19 17:15:00,54.7,39.7,30.40,ENE,68,1.0,5.0,57,0.00,,,0.00,meteohub,2014-09-19 21:15:00,
2014-09-19 17:20:00,54.3,40.8,30.40,East,89,0.0,6.0,60,0.00,,,0.00,meteohub,2014-09-19 21:20:00,
2014-09-19 17:25:00,54.0,39.9,30.40,ESE,109,2.0,6.0,59,0.00,,,0.00,meteohub,2014-09-19 21:25:00,
2014-09-19 17:30:00,53.8,39.7,30.40,East,92,1.0,8.0,59,0.00,,,0.00,meteohub,2014-09-19 21:30:00,
2014-09-19 17:35:00,53.4,39.9,30.40,ESE,115,0.0,8.0,60,0.00,,,0.00,meteohub,2014-09-19 21:35:00,
2014-09-19 17:40:00,53.2,41.0,30.40,East,98,1.0,5.0,63,0.00,,,0.00,meteohub,2014-09-19 21:40:00,
2014-09-19 17:45:00,53.2,40.6,30.40,East,92,1.0,3.0,62,0.00,,,0.00,meteohub,2014-09-19 21:45:00,
2014-09-19 17:50:00,52.9,40.6,30.40,East,87,2.0,3.0,63,0.00,,,0.00,meteohub,2014-09-19 21:50:00,
2014-09-19 17:55:00,52.7,39.6,30.40,East,96,1.0,7.0,61,0.00,,,0.00,meteohub,2014-09-19 21:55:00,
2014-09-19 18:00:00,52.5,39.9,30.40,East,92,3.0,7.0,62,0.00,,,0.00,meteohub,2014-09-19 22:00:00,
2014-09-19 18:05:00,52.3,40.1,30.40,East,92,0.0,7.0,63,0.00,,,0.00,meteohub,2014-09-19 22:05:00,
2014-09-19 18:10:00,52.0,40.1,30.40,East,92,0.0,6.0,64,0.00,,,0.00,meteohub,2014-09-19 22:10:00,
2014-09-19 18:15:00,51.6,39.9,30.40,East,92,0.0,6.0,64,0.00,,,0.00,meteohub,2014-09-19 22:15:00,
2014-09-19 18:20:00,51.4,40.5,30.40,East,92,0.0,3.0,66,0.00,,,0.00,meteohub,2014-09-19 22:20:00,
2014-09-19 18:25:00,51.3,40.3,30.40,East,92,0.0,2.0,66,0.00,,,0.00,meteohub,2014-09-19 22:25:00,
2014-09-19 18:30:00,50.9,40.3,30.40,East,92,0.0,2.0,67,0.00,,,0.00,meteohub,2014-09-19 22:30:00,
2014-09-19 18:35:00,50.5,40.5,30.40,East,92,0.0,2.0,68,0.00,,,0.00,meteohub,2014-09-19 22:35:00,
2014-09-19 18:40:00,50.4,39.7,30.40,East,92,0.0,1.0,67,0.00,,,0.00,meteohub,2014-09-19 22:40:00,
2014-09-19 18:45:00,50.0,39.9,30.40,East,92,0.0,1.0,68,0.00,,,0.00,meteohub,2014-09-19 22:45:00,
2014-09-19 18:50:00,49.6,39.6,30.40,East,92,0.0,3.0,68,0.00,,,0.00,meteohub,2014-09-19 22:50:00,
2014-09-19 18:55:00,49.5,39.7,30.40,East,92,0.0,3.0,69,0.00,,,0.00,meteohub,2014-09-19 22:55:00,
2014-09-19 19:00:00,48.9,39.2,30.41,East,92,0.0,3.0,69,0.00,,,0.00,meteohub,2014-09-19 23:00:00,
2014-09-19 19:05:00,48.7,39.4,30.41,East,92,0.0,2.0,70,0.00,,,0.00,meteohub,2014-09-19 23:05:00,
2014-09-19 19:10:00,48.6,39.2,30.41,East,92,0.0,2.0,70,0.00,,,0.00,meteohub,2014-09-19 23:10:00,
2014-09-19 19:15:00,48.2,38.8,30.42,East,92,0.0,1.0,70,0.00,,,0.00,meteohub,2014-09-19 23:15:00,
2014-09-19 19:20:00,48.0,38.7,30.42,East,92,0.0,1.0,70,0.00,,,0.00,meteohub,2014-09-19 23:20:00,
2014-09-19 19:25:00,47.8,38.8,30.42,East,92,0.0,1.0,71,0.00,,,0.00,meteohub,2014-09-19 23:25:00,
2014-09-19 19:30:00,47.7,38.7,30.42,East,92,0.0,1.0,71,0.00,,,0.00,meteohub,2014-09-19 23:30:00,
2014-09-19 19:35:00,47.3,38.3,30.43,East,92,0.0,3.0,71,0.00,,,0.00,meteohub,2014-09-19 23:35:00,
2014-09-19 19:40:00,46.9,38.1,30.42,East,92,0.0,3.0,71,0.00,,,0.00,meteohub,2014-09-19 23:40:00,
2014-09-19 19:45:00,46.8,38.3,30.42,East,92,0.0,3.0,72,0.00,,,0.00,meteohub,2014-09-19 23:45:00,
2014-09-19 19:50:00,46.6,38.1,30.42,East,92,0.0,1.0,72,0.00,,,0.00,meteohub,2014-09-19 23:50:00,
2014-09-19 19:55:00,46.4,38.3,30.42,East,92,0.0,1.0,73,0.00,,,0.00,meteohub,2014-09-19 23:55:00,
2014-09-19 20:00:00,46.2,38.7,30.42,East,92,0.0,1.0,75,0.00,,,0.00,meteohub,2014-09-20 00:00:00,
2014-09-19 20:05:00,46.0,38.8,30.43,East,92,0.0,2.0,76,0.00,,,0.00,meteohub,2014-09-20 00:05:00,
2014-09-19 20:10:00,45.7,39.2,30.43,East,92,0.0,2.0,78,0.00,,,0.00,meteohub,2014-09-20 00:10:00,
2014-09-19 20:15:00,45.1,38.7,30.43,East,92,0.0,2.0,78,0.00,,,0.00,meteohub,2014-09-20 00:15:00,
2014-09-19 20:20:00,44.8,38.7,30.43,East,92,0.0,1.0,79,0.00,,,0.00,meteohub,2014-09-20 00:20:00,
2014-09-19 20:25:00,44.2,38.5,30.43,East,92,0.0,0.0,80,0.00,,,0.00,meteohub,2014-09-20 00:25:00,
2014-09-19 20:30:00,44.1,38.3,30.42,East,92,0.0,0.0,80,0.00,,,0.00,meteohub,2014-09-20 00:30:00,
2014-09-19 20:35:00,43.9,38.5,30.43,East,92,0.0,0.0,81,0.00,,,0.00,meteohub,2014-09-20 00:35:00,
2014-09-19 20:40:00,43.5,37.8,30.43,East,92,0.0,0.0,80,0.00,,,0.00,meteohub,2014-09-20 00:40:00,
2014-09-19 20:45:00,43.3,37.9,30.43,East,92,0.0,0.0,81,0.00,,,0.00,meteohub,2014-09-20 00:45:00,
2014-09-19 20:48:00,43.2,37.8,30.43,East,92,0.0,0.0,81,0.00,,,0.00,meteohub,2014-09-20 00:48:00,
2014-09-19 20:53:00,43.0,37.6,30.43,East,92,0.0,0.0,81,0.00,,,0.00,meteohub,2014-09-20 00:53:00,
2014-09-19 20:58:00,42.6,37.2,30.43,East,92,0.0,0.0,81,0.00,,,0.00,meteohub,2014-09-20 00:58:00,
2014-09-19 21:03:00,42.4,37.4,30.43,East,92,0.0,0.0,82,0.00,,,0.00,meteohub,2014-09-20 01:03:00,
2014-09-19 21:08:00,42.4,37.0,30.43,East,92,0.0,0.0,81,0.00,,,0.00,meteohub,2014-09-20 01:08:00,
2014-09-19 21:13:00,42.3,36.9,30.43,East,92,0.0,0.0,81,0.00,,,0.00,meteohub,2014-09-20 01:13:00,
2014-09-19 21:18:00,42.1,36.7,30.43,East,92,0.0,0.0,81,0.00,,,0.00,meteohub,2014-09-20 01:18:00,
2014-09-19 21:23:00,42.1,37.0,30.43,East,92,0.0,0.0,82,0.00,,,0.00,meteohub,2014-09-20 01:23:00,
2014-09-19 21:28:00,41.9,36.9,30.43,East,92,0.0,0.0,82,0.00,,,0.00,meteohub,2014-09-20 01:28:00,
2014-09-19 21:33:00,41.7,36.7,30.43,East,92,0.0,0.0,82,0.00,,,0.00,meteohub,2014-09-20 01:33:00,
2014-09-19 21:38:00,41.5,36.5,30.43,East,92,0.0,0.0,82,0.00,,,0.00,meteohub,2014-09-20 01:38:00,